[Iaude] MPEC F96: 2022 FQ2 [a=1.37,e=0.37,i=1.2,H=26.7]

mpec at marsden.cfa.harvard.edu mpec at marsden.cfa.harvard.edu
Sun Mar 27 10:55:05 EDT 2022


M.P.E.C. 2022-F96                                Issued 2022 March 27, 14:53 UT

     The Minor Planet Electronic Circulars contain information on unusual
         minor planets and routine data on comets.  They are published
    on behalf of Division F of the International Astronomical Union by the
          Minor Planet Center, Smithsonian Astrophysical Observatory,
                          Cambridge, MA 02138, U.S.A.

             Prepared using the Tamkin Foundation Computer Network

                              MPC at CFA.HARVARD.EDU
            URL https://www.minorplanetcenter.net/    ISSN 1523-6714

                                    2022 FQ2                                    


Observations:
     K22F02Q* C2022 03 26.30060612 08 48.15 +34 03 22.4          20.67GVEF096G96
     K22F02Q  C2022 03 26.30581912 08 49.32 +34 04 50.3          20.81GVEF096G96
     K22F02Q  C2022 03 26.31111212 08 50.49 +34 06 18.7          20.42GVEF096G96
     K22F02Q  C2022 03 26.41938812 09 15.22 +34 36 29.1          20.0 GVEF096H01
     K22F02Q  C2022 03 26.42576212 09 16.93 +34 38 16.3          20.3 GVEF096H01
     K22F02Q  C2022 03 26.43396612 09 19.17 +34 40 34.4          20.7 GVEF096H01
     K22F02Q KC2022 03 26.43928412 09 21.14 +34 42 17.1          20.30GVEF096I52
     K22F02Q KC2022 03 26.44019612 09 21.40 +34 42 32.2          20.84GVEF096I52
     K22F02Q KC2022 03 26.44110912 09 21.65 +34 42 47.8          20.57GVEF096I52
     K22F02Q  C2022 03 26.44150412 09 21.26 +34 42 41.2          20.6 GVEF096H01
     K22F02Q KC2022 03 26.44202212 09 21.95 +34 43 02.5          19.95GVEF096I52
     K22F02Q KC2022 03 26.84389512 12 27.84 +36 46 42.5          20.4 GXEF096I93
     K22F02Q KC2022 03 26.85254512 12 30.97 +36 49 38.4          20.4 GXEF096I93
     K22F02Q KC2022 03 26.86112812 12 34.05 +36 52 35.4          20.1 GXEF096I93
     K22F02Q 1C2022 03 26.89594312 12 41.79 +37 04 24.9                VEF096246
     K22F02Q 1C2022 03 26.89680112 12 42.10 +37 04 41.7                VEF096246
     K22F02Q 1C2022 03 26.89720012 12 42.24 +37 04 49.8          20.4 GVEF096246
     K22F02Q 1C2022 03 26.89760012 12 42.40 +37 04 57.8                VEF096246
     K22F02Q KC2022 03 26.94509112 13 02.70 +37 20 49.1          20.1 GVEF096J95
     K22F02Q KC2022 03 26.95144512 13 04.95 +37 23 00.2          20.4 GVEF096J95
     K22F02Q KC2022 03 26.96273012 13 08.90 +37 26 53.1          20.4 GVEF096J95
     K22F02Q KC2022 03 27.12416512 14 34.37 +38 24 01.5          20.2 VuEF096H21
     K22F02Q KC2022 03 27.12609412 14 35.12 +38 24 44.4          20.3 VuEF096H21
     K22F02Q KC2022 03 27.12802212 14 35.90 +38 25 27.3          20.4 VuEF096H21
     K22F02Q KC2022 03 27.13008012 14 36.70 +38 26 13.1          20.5 VuEF096H21
     K22F02Q mC2022 03 27.49357812 17 14.64 +40 44 38.4          20.07GVEF096I52
     K22F02Q mC2022 03 27.49389412 17 14.85 +40 44 46.1          20.85GVEF096I52
     K22F02Q mC2022 03 27.49420912 17 14.97 +40 44 53.0          20.85GVEF096I52

Observer details:
246 Klet Observatory-KLENOT.  Observers M. Tichy, J. Ticha, M. Honkova.
    Measurer M. Tichy.  1.06-m f/2.7 reflector + 2048x2048 CCD.
G96 Mt. Lemmon Survey.  Observer R. A. Kowalski.  Measurers E. J. Christensen,
    G. A. Farneth, J. B. Fazekas, D. C. Fuls, A. R. Gibbs, A. D. Grauer, H.
    Groeller, J. K. Hogan, R. A. Kowalski, S. M. Larson, G. J. Leonard, D.
    Rankin, R. L. Seaman, A. Serrano, F. C. Shelly, K. W. Wierzchos.  1.5-m
    reflector + 10K CCD.
H01 Magdalena Ridge Observatory, Socorro.  Observers W. H. Ryan, E. V. Ryan.
    Measurer W. H. Ryan.  2.4-m f/8.9 Ritchey-Chretien + CCD.
H21 Astronomical Research Observatory, Westfield.  Observer R. Holmes.
    Measurers T. Linder, R. Holmes, L. Horn.  0.76-m f/3.0 astrograph + CCD.
I52 Steward Observatory, Mt. Lemmon Station.  Observers G. J. Leonard, H.
    Groeller.  Measurers E. J. Christensen, G. A. Farneth, J. B. Fazekas, D.
    C. Fuls, A. R. Gibbs, A. D. Grauer, H. Groeller, J. K. Hogan, R. A.
    Kowalski, S. M. Larson, G. J. Leonard, D. Rankin, R. L. Seaman, A.
    Serrano, F. C. Shelly, K. W. Wierzchos.
I93 St Pardon de Conques.  Observer F. Losse.  0.40-m f/3.7 reflector + CCD.
J95 Great Shefford.  Observer P. Birtwhistle.  0.41-m f/6.3 Schmidt-Cassegrain
    + CCD.

Orbital elements:
2022 FQ2                                                 Earth MOID = 0.0152 AU
Epoch 2022 Jan. 21.0 TT = JDT 2459600.5                 Veres                   
M 289.38376              (2000.0)            P               Q                  
n   0.61450510     Peri.  190.68552     -0.35823873     +0.93346906             
a   1.3702055      Node    58.32442     -0.85507941     -0.32058719             
e   0.3661947      Incl.    1.16719     -0.37483893     -0.16080845             
P   1.60           H   26.75          G   0.15           U   7                  
Residuals in seconds of arc
220326 G96  0.2-  0.3+    220326 I52  0.5+  0.8-    220326 J95  0.1+  0.6-
220326 G96  0.2+  0.5+    220326 I93  0.6+  0.3+    220327 H21  0.4-  0.2+
220326 G96  0.4+  0.3-    220326 I93  0.4+  0.7-    220327 H21  0.5-  0.2+
220326 H01  0.1-  0.1+    220326 I93  0.3+  0.5+    220327 H21  0.2-  0.2+
220326 H01  0.1-  0.1+    220326 246  0.1-  0.1+    220327 H21  0.3-  0.2+
220326 H01  0.0   0.1+    220326 246  0.2+  0.6-    220327 I52  0.1-  0.1-
220326 I52  0.2-  0.0     220326 246  0.2+  0.6-    220327 I52  0.4+  0.3+
220326 I52  0.1-  0.3-    220326 246  0.5+  0.8-    220327 I52  0.0   0.1-
220326 I52  0.1-  0.1-    220326 J95  0.2+  0.3+
220326 H01  0.1-  0.0     220326 J95  0.4+  0.1+

Ephemeris:
2022 FQ2                 a,e,i = 1.37, 0.37, 1                   q = 0.8684
Date    TT    R. A. (2000) Decl.     Delta      r    Elong.  Phase     V
2022 02 25    11 43 34.5 +09 00 26   0.2060  1.1875   162.2    14.8    24.5
...
2022 03 12    11 48 35.2 +13 05 16   0.1097  1.1014   169.1     9.8    22.8
...
2022 03 20    11 53 28.0 +19 02 01   0.06445 1.0569   161.3    17.6    21.8
...
2022 03 26    12 07 12.4 +32 42 25   0.03324 1.0248   145.2    33.7    20.8
2022 03 27    12 13 21.5 +37 40 43   0.02852 1.0196   139.9    39.1    20.6
2022 03 28    12 23 20.8 +44 28 09   0.02413 1.0145   132.8    46.2    20.4
...
2022 04 03    22 56 16.5 +40 35 36   0.02084 0.9846    43.4   135.8    24.6
...
2022 04 11    23 30 56.6 +08 31 24   0.05996 0.9485    26.2   152.2    29.4
...
2022 04 26    23 46 18.2 +00 33 58   0.1463  0.8961    38.4   135.8    28.7

M. P. C. Staff               (C) Copyright 2022 MPC           M.P.E.C. 2022-F96




More information about the Iaude mailing list